Regional Weather Roundup
Issued by NWS

Home | Current Version | Previous Version | Text Only | Print | Product List | Glossary Off
Versions: 1 2 3 4 5 6 7 8 9 10 11 12 13 14 15 16 17 18 19 20 21 22 23 24 25 26 27 28 29 30 31 32 33 34 35 36 37 38 39 40 41 42 43 44 45 46 47 48 49 50

000
ASUS45 KBOU 270207
RWRCO

WEATHER ROUNDUP FOR COLORADO
NATIONAL WEATHER SERVICE DENVER/BOULDER CO
800 PM MDT WED AUG 26 2015

NOTE: "FAIR" INDICATES FEW OR NO CLOUDS BELOW 12000 FEET WITH NO
SIGNIFICANT WEATHER AND/OR OBSTRUCTIONS TO VISIBILITY.

COZ001>005-013-030-031-270300-
...NORTHWEST COLORADO...

CITY           SKY/WX    TMP DP  RH WIND       PRES   REMARKS
CRAIG          LGT RAIN  60  56  86 SW6       30.33R
HAYDEN         NOT AVBL
MEEKER         CLOUDY    61  58  90 E6        30.32F
MOUNT WERNER   NOT AVBL
STEAMBOAT SPGS CLOUDY    59  54  84 SW7       30.37R
WALDEN         CLOUDY    54  45  71 NW9       30.38F
$$

COZ006>008-011-270300-
...WEST CENTRAL VALLEYS...

CITY           SKY/WX    TMP DP  RH WIND       PRES   REMARKS
GRAND JUNCTION CLOUDY    66  61  84 CALM      30.22S
MONTROSE       MOCLDY    67  54  63 NW8       30.29R
EAGLE          CLOUDY    70  48  46 W6        30.33S
RIFLE          LGT RAIN  67  59  75 SE3       30.26F
DELTA          RAIN      70  59  69 N7        30.25S
NUCLA          MOCLDY    68  54  60 CALM      30.31S
$$

COZ017>023-064>068-270300-
...SOUTHWEST COLORADO...

CITY           SKY/WX    TMP DP  RH WIND       PRES   REMARKS
DURANGO        LGT RAIN  66  56  70 NE7       30.34F
CORTEZ         PTCLDY    67  61  81 W3        30.27F
PAGOSA SPRINGS CLOUDY    61  52  72 CALM      30.43F
TELLURIDE      CLOUDY    59  50  72 CALM      30.51S
WOLF CREEK PAS FOG       43  43 100 SW9       30.72F VSB<1/4
$$

COZ009-010-012-014-032>034-037-058>063-270300-
...CENTRAL COLORADO...

CITY           SKY/WX    TMP DP  RH WIND       PRES   REMARKS
ASPEN          CLOUDY    65  43  44 SE10      30.39F
BUENA VISTA    CLOUDY    58  46  64 S6        30.43S
COPPER MTN     CLOUDY    52  37  58 S22       30.68F
BERTHOUD PASS  MOCLDY    46  34  61 W7        30.74R
COTTONWOOD PAS MOCLDY    54  43  66 W3        30.54F
GUNNISON       MOCLDY    57  52  82 N5        30.46F
KREMMLING      LGT RAIN  68  45  42 S9        30.37R
LEADVILLE      CLOUDY    53  40  61 SE6       30.53F
MONARCH PASS   MOCLDY    43  41  93 SW17      30.78F
SALIDA         CLOUDY    60  50  69 SW7       30.48S
SUNLIGHT       CLOUDY    50  46  87 SE3       30.62F
WILKERSON PASS CLOUDY    46  37  71 SW9G17    30.64S
$$

COZ069>075-270300-
...SAN LUIS VALLEY/SANGRE DE CRISTO MOUNTAINS...

CITY           SKY/WX    TMP DP  RH WIND       PRES   REMARKS
ALAMOSA        MOCLDY    59  53  80 CALM      30.42F
LA VETA PASS   MOCLDY    50  45  81 S10G24    30.54F
SAGUACHE       PTCLDY    54  52  94 CALM      30.46F
$$

COZ035-036-038>040-270300-
...NORTHERN COLORADO FRONT RANGE...

CITY           SKY/WX    TMP DP  RH WIND       PRES   REMARKS
DENVER INTL AP MOCLDY    79  38  22 S12       30.11R
DMNS CITY PARK   N/A     80  40  23 SW9       30.10S
AURORA         MOCLDY    79  40  24 SW13      30.14S
FRONT RANGE AP MOCLDY    77  37  24 MISG      30.12F
ERIE MUNI ARPT PTCLDY    80  39  23 NE8       30.09R
BOULDER MUN AP PTCLDY    77  46  33 CALM      30.11R
CENTENNIAL     MOCLDY    79  42  26 SW20G28   30.16R
BROOMFIELD     MOCLDY    81  41  24 CALM      30.13F
FORT COLLINS   MOCLDY    79  46  31 NE8       30.09S
LONGMONT       MOCLDY    81  44  27 N5        30.10S
$$

COZ041-046-047-076>085-087-088-270300-
...PIKES PEAK/PALMER DIVIDE AND SOUTHERN FOOTHILLS...

CITY           SKY/WX    TMP DP  RH WIND       PRES   REMARKS
COLO. SPRINGS  CLOUDY    74  40  29 S15       30.23R
A. F. ACADEMY  CLOUDY    74  40  28 SE9       30.23R
ELLICOTT       CLOUDY   N/A N/A N/A SW13      30.22F
FALCON         CLOUDY    71  39  30 S15G23    30.29R
FORT CARSON    NOT AVBL
LIMON          MOCLDY    74  41  30 S12G21    30.16R
MONUMENT HILL  CLOUDY    68  37  32 SW6       30.27S
TRINIDAD       CLOUDY    75  46  35 W5        30.25S
$$

COZ042>045-048>051-090-091-270300-
...NORTHEAST COLORADO...

CITY           SKY/WX    TMP DP  RH WIND       PRES   REMARKS
GREELEY ARPT   MOCLDY    77  50  38 NW7       30.07R
AKRON          CLOUDY    84  37  18 S12       30.08S
BURLINGTON     CLOUDY    80  43  26 S13       30.10S
WRAY           MOCLDY    87  37  16 S13       30.03S
STERLING       CLOUDY    79  43  27 S7        30.01S
HOLYOKE        MOCLDY    79  45  29 S9        30.02R
FORT MORGAN    CLOUDY    80  37  20 SW6       30.06S
$$

COZ086-089-092>099-270300-
...SOUTHEAST COLORADO...

CITY           SKY/WX    TMP DP  RH WIND       PRES   REMARKS
PUEBLO         CLOUDY    81  45  28 W9        30.10F
LA JUNTA       CLOUDY    82  50  32 SW7       30.10F
LAMAR          CLOUDY    85  46  25 S13       30.06S
SPRINGFIELD      N/A     80  48  32 S13       30.16S
$$




USA.gov is the U.S. government's official web portal to all federal, state and local government web resources and services.